TimePDT,TemperatureF,Dew PointF,Humidity,Sea Level PressureIn,VisibilityMPH,Wind Direction,Wind SpeedMPH,Gust SpeedMPH,PrecipitationIn,Events,Conditions,WindDirDegrees,DateUTC
12:53 AM,55.0,52.0,89,29.94,10.0,Calm,Calm,-,N/A,,Overcast,0,2012-09-25 07:53:00
1:53 AM,54.0,52.0,93,29.94,9.0,Calm,Calm,-,N/A,,Overcast,0,2012-09-25 08:53:00
2:02 AM,53.6,51.8,94,29.94,7.0,Calm,Calm,-,N/A,,Overcast,0,2012-09-25 09:02:00
2:53 AM,54.0,52.0,93,29.93,8.0,Calm,Calm,-,N/A,,Overcast,0,2012-09-25 09:53:00
3:53 AM,54.0,52.0,93,29.92,5.0,SE,4.6,-,N/A,,Overcast,140,2012-09-25 10:53:00
4:53 AM,53.1,51.1,93,29.92,4.0,Calm,Calm,-,N/A,,Overcast,0,2012-09-25 11:53:00
5:34 AM,51.8,51.8,100,29.92,2.0,Calm,Calm,-,N/A,,Overcast,0,2012-09-25 12:34:00
5:48 AM,51.8,51.8,100,29.92,6.0,Calm,Calm,-,N/A,,Overcast,0,2012-09-25 12:48:00
5:53 AM,52.0,51.1,97,29.92,4.0,Calm,Calm,-,N/A,,Overcast,0,2012-09-25 12:53:00
6:25 AM,51.8,51.8,100,29.93,2.0,Calm,Calm,-,N/A,,Overcast,0,2012-09-25 13:25:00
6:53 AM,53.1,52.0,96,29.94,4.0,Calm,Calm,-,N/A,,Overcast,0,2012-09-25 13:53:00
7:19 AM,51.8,51.8,100,29.94,2.5,Calm,Calm,-,N/A,,Overcast,0,2012-09-25 14:19:00
7:44 AM,51.8,51.8,100,29.94,1.5,East,4.6,-,N/A,,Overcast,100,2012-09-25 14:44:00
7:51 AM,51.8,51.8,100,29.95,1.2,Calm,Calm,-,N/A,,Overcast,0,2012-09-25 14:51:00
7:53 AM,52.0,51.1,97,29.95,1.5,Calm,Calm,-,N/A,,Overcast,0,2012-09-25 14:53:00
8:04 AM,51.8,51.8,100,29.95,3.0,Calm,Calm,-,N/A,,Overcast,0,2012-09-25 15:04:00
8:20 AM,51.8,51.8,100,29.96,2.5,Calm,Calm,-,N/A,,Overcast,0,2012-09-25 15:20:00
8:28 AM,51.8,51.8,100,29.96,3.0,Variable,5.8,-,N/A,,Overcast,0,2012-09-25 15:28:00
8:53 AM,53.1,52.0,96,29.96,4.0,Calm,Calm,-,N/A,,Overcast,0,2012-09-25 15:53:00
9:53 AM,55.0,52.0,89,29.96,10.0,Calm,Calm,-,N/A,,Overcast,0,2012-09-25 16:53:00
10:09 AM,55.4,51.8,88,29.96,10.0,SSE,3.5,-,N/A,,Overcast,150,2012-09-25 17:09:00
10:39 AM,57.2,51.8,82,29.96,10.0,Calm,Calm,-,N/A,,Overcast,0,2012-09-25 17:39:00
10:53 AM,57.9,51.1,78,29.96,10.0,Calm,Calm,-,N/A,,Overcast,0,2012-09-25 17:53:00
11:21 AM,60.8,51.8,72,29.94,10.0,Calm,Calm,-,N/A,,Scattered Clouds,0,2012-09-25 18:21:00
12:53 PM,64.9,53.1,65,29.93,10.0,SSE,6.9,-,N/A,,Clear,160,2012-09-25 19:53:00
1:53 PM,64.0,51.1,63,29.92,10.0,SSW,6.9,-,N/A,,Clear,210,2012-09-25 20:53:00
2:53 PM,62.1,52.0,70,29.92,10.0,SW,10.4,-,N/A,,Clear,230,2012-09-25 21:53:00
3:53 PM,62.1,52.0,70,29.91,10.0,SW,5.8,-,N/A,,Clear,220,2012-09-25 22:53:00
4:53 PM,60.1,53.1,78,29.90,10.0,South,5.8,-,N/A,,Clear,180,2012-09-25 23:53:00
5:53 PM,57.9,52.0,81,29.89,10.0,SSW,4.6,-,N/A,,Clear,210,2012-09-26 00:53:00
6:26 PM,55.4,51.8,88,29.90,10.0,SW,5.8,-,N/A,,Mostly Cloudy,220,2012-09-26 01:26:00
6:53 PM,55.9,52.0,87,29.90,-9999.0,North,-9999.0,-,N/A,,Unknown,0,2012-09-26 01:53:00
7:43 PM,55.4,53.6,94,29.90,9.0,Calm,Calm,-,N/A,,Overcast,0,2012-09-26 02:43:00
7:53 PM,55.0,53.1,93,29.91,9.0,Calm,Calm,-,N/A,,Overcast,0,2012-09-26 02:53:00
8:53 PM,54.0,53.1,97,29.92,5.0,Calm,Calm,-,N/A,,Overcast,0,2012-09-26 03:53:00
10:53 PM,53.1,52.0,96,29.93,4.0,Calm,Calm,-,N/A,,Overcast,0,2012-09-26 05:53:00
11:53 PM,53.1,52.0,96,29.92,4.0,SE,3.5,-,N/A,,Overcast,130,2012-09-26 06:53:00